TimeEDT,TemperatureF,Dew PointF,Humidity,Sea Level PressureIn,VisibilityMPH,Wind Direction,Wind SpeedMPH,Gust SpeedMPH,PrecipitationIn,Events,Conditions,WindDirDegrees,DateUTC
12:53 AM,52.0,46.9,83,30.04,10.0,Calm,Calm,-,N/A,,Clear,0,2012-10-25 04:53:00
1:53 AM,50.0,46.0,86,30.04,10.0,Calm,Calm,-,N/A,,Clear,0,2012-10-25 05:53:00
2:53 AM,50.0,46.0,86,30.04,10.0,Calm,Calm,-,N/A,,Clear,0,2012-10-25 06:53:00
3:53 AM,48.9,45.0,86,30.03,10.0,Calm,Calm,-,N/A,,Clear,0,2012-10-25 07:53:00
4:53 AM,48.9,44.1,83,30.03,10.0,Calm,Calm,-,N/A,,Clear,0,2012-10-25 08:53:00
5:53 AM,48.0,45.0,89,30.02,10.0,Calm,Calm,-,N/A,,Clear,0,2012-10-25 09:53:00
6:53 AM,48.0,44.1,86,30.04,10.0,Calm,Calm,-,N/A,,Clear,0,2012-10-25 10:53:00
7:53 AM,51.1,46.9,86,30.04,10.0,Calm,Calm,-,N/A,,Clear,0,2012-10-25 11:53:00
10:53 AM,68.0,54.0,61,30.08,10.0,SSW,8.1,-,N/A,,Clear,200,2012-10-25 14:53:00
11:53 AM,72.0,55.9,57,30.07,10.0,South,6.9,-,N/A,,Clear,170,2012-10-25 15:53:00
1:53 PM,77.0,55.0,47,30.02,10.0,SSW,10.4,21.9,N/A,,Partly Cloudy,210,2012-10-25 17:53:00
2:53 PM,78.1,53.1,42,29.99,10.0,South,12.7,-,N/A,,Clear,190,2012-10-25 18:53:00
3:53 PM,78.1,54.0,43,29.98,10.0,South,10.4,17.3,N/A,,Clear,190,2012-10-25 19:53:00
4:53 PM,78.1,53.1,42,29.97,10.0,SSW,10.4,19.6,N/A,,Clear,200,2012-10-25 20:53:00
5:53 PM,75.9,53.1,45,29.96,10.0,SSW,9.2,-,N/A,,Clear,200,2012-10-25 21:53:00
6:53 PM,70.0,53.1,55,29.97,10.0,South,3.5,-,N/A,,Clear,190,2012-10-25 22:53:00
7:53 PM,66.9,53.1,61,29.98,10.0,SSE,3.5,-,N/A,,Clear,150,2012-10-25 23:53:00
9:53 PM,60.1,52.0,75,29.99,10.0,Calm,Calm,-,N/A,,Clear,0,2012-10-26 01:53:00
10:53 PM,59.0,52.0,78,29.99,10.0,South,3.5,-,N/A,,Partly Cloudy,190,2012-10-26 02:53:00
11:53 PM,64.0,52.0,65,29.99,10.0,South,8.1,-,N/A,,Clear,190,2012-10-26 03:53:00